AirNav   Duncan Aviation - Near you to keep you flying
 
 1386 users online  

11MO Redgate Ranch Airport
Williamsburg, Missouri, USA

GOING TO WILLIAMSBURG?


FAA INFORMATION EFFECTIVE 01 DECEMBER 2022

Location

FAA Identifier: 11MO
Lat/Long: 38-54-06.1470N 091-38-06.6040W
38-54.102450N 091-38.110067W
38.9017075,-91.6351678
(estimated)
Elevation: 820 ft. / 250 m (estimated)
Variation: 03E (1985)
From city: 3 miles E of WILLIAMSBURG, MO
Time zone: UTC -6 (UTC -5 during Daylight Saving Time)
Zip code: 63361

Airport Operations

Airport use: Private use. Permission required prior to landing
Activation date: 09/1971
Control tower: no
ARTCC: KANSAS CITY CENTER
FSS: COLUMBIA FLIGHT SERVICE STATION
Attendance: UNATNDD
Wind indicator: yes
Segmented circle: no

Airport Communications

WX AWOS-3PT at MYJ (18 nm NW): 120.575 (573-581-7868)

Nearby radio navigation aids

VOR radial/distance  VOR name  Freq  Var
HLVr113/26.3HALLSVILLE VORTAC114.2006E
COUr079/27.8COLUMBIA VOR/DME110.2000E
FTZr287/33.4FORISTELL VORTAC110.8005E

Airport Services

Airframe service: NONE
Powerplant service: NONE

Runway Information

Runway 18/36

Dimensions: 2100 x 70 ft. / 640 x 21 m
Surface: turf
RUNWAY 18  RUNWAY 36
Traffic pattern: leftleft
Obstructions: trees, 100 ft. from runwayfence, 50 ft. from runway

Airport Ownership and Management from official FAA records

Ownership: Privately-owned
Owner: TURKEN
RT 1
KINGDOM CITY, MO 65262
Phone 573-564-3512

Additional Remarks

FOR CD CTC MIZZOU APCH AT 417-868-5620/5619.

Instrument Procedures

There are no published instrument procedures at 11MO.

Some nearby airports with instrument procedures:

KMYJ - Mexico Memorial Airport (18 nm NW)
KFTT - Elton Hensley Memorial Airport (18 nm W)
KCOU - Columbia Regional Airport (28 nm W)
KJEF - Jefferson City Memorial Airport (31 nm SW)
H19 - Bowling Green Municipal Airport (34 nm NE)
 
Loc | Ops | Rwys | IFR | FBO | Links
Com | Nav | Svcs | Stats | Notes
Area around 11MO (Redgate Ranch Airport)
 
Road maps at: MapQuest Bing Google
 
Aerial photo
No photo
 
Sectional chart

 
Airport distance calculator
Flying to Redgate Ranch Airport? Find the distance to fly.

From to 11MO

Sunrise and sunset
Times for 02-Dec-2022
 Local
(UTC-6)
 Zulu
(UTC)
Morning civil twilight06:3912:39
Sunrise07:0813:08
Sunset16:4422:44
Evening civil twilight17:1323:13

Current date and time
Zulu (UTC)  02-Dec-2022 15:58:52
Local (UTC-6)  02-Dec-2022 09:58:52
 
METAR
KMYJ 
18nm NW 
021555Z AUTO 19020G25KT 10SM SCT027 11/03 A2985 RMK AO2
KCOU 
28nm W 
021554Z 19017G28KT 10SM OVC027 12/03 A2987 RMK AO2 PK WND 18031/1510 SLP114 T01220028
KJEF 
30nm SW 
021553Z 19013G24KT 10SM OVC028 14/04 A2989 RMK AO2 SLP113 T01390039 $
TAF
KCOU 
28nm W 
021129Z 0212/0312 17011G17KT P6SM BKN030 FM021700 20022G39KT P6SM BKN030 FM022300 21015G25KT P6SM BKN035 FM030400 26019G34KT P6SM SCT035 FM030900 32014G24KT P6SM FEW240
KJEF 
30nm SW 
021129Z 0212/0312 16012KT P6SM OVC035 FM021700 20022G39KT P6SM BKN030 FM022300 21015G25KT P6SM BKN035 FM030400 26019G34KT P6SM SCT035 FM030900 32014G24KT P6SM FEW240
NOTAMs
Click for the latest NOTAMs
NOTAMs are issued by the DoD/FAA and will open in a separate window not controlled by AirNav.

 

 
 

Would you like to see your business listed on this page?

 If your business provides an interesting product or service to pilots, flight crews, aircraft, or users of the Redgate Ranch Airport, you should consider listing it here.  To start the listing process, click on the button below
 
Add a business
 

Other Pages about Redgate Ranch Airport

Update a link
 
Copyright © AirNav, LLC. All rights reserved. Privacy Policy  Contact